Location: ????
(33.1659°N, 35.6604°E)
Time: 01:37:25
(UTC+00:00)

Okean 1 Rocket - Pass Details

Date: 20 September 2019
Orbit: 608 x 634 km, 82.5° (Epoch: 15 October)

Event Time Altitude Azimuth Distance (km) Brightness Sun altitude
Rises 16:12:42 0° 176° (S) 2,849 6.4 -8.2°
Reaches altitude 10° 16:14:56 10° 172° (S) 1,950 5.5 -8.6°
Maximum altitude 16:19:09 58° 94° (E) 711 3.0 -9.5°
Drops below altitude 10° 16:23:26 10° 15° (NNE) 1,970 5.6 -10.4°
Sets 16:25:41 0° 12° (NNE) 2,881 6.5 -10.9°
